Regional Weather Roundup
Issued by NWS Bismarck, ND

Home | Current Version | Previous Version | Text Only | Print | Product List | Glossary On
Versions: 1 2 3 4 5 6 7 8 9 10 11 12 13 14 15 16 17 18 19 20 21 22 23 24 25 26 27 28 29 30 31 32 33 34 35 36 37 38 39 40 41 42 43 44 45 46 47 48 49 50
000
ASUS43 KBIS 280210
RWRBIS

NWR BROADCAST TEXT
NATIONAL WEATHER SERVICE BISMARCK ND
900 PM CDT MON JUL 27 2015

NOTE: "FAIR" INDICATES FEW OR NO CLOUDS BELOW 12,000 FEET WITH NO
SIGNIFICANT WEATHER AND/OR OBSTRUCTIONS TO VISIBILITY.


CITY           SKY/WX    TMP DP  RH WIND       PRES   REMARKS
WILLISTON      CLOUDY    87  65  47 SE14      29.50F
MINOT          MOCLDY    84  67  56 SE13      29.61F
MINOT AFB      MOCLDY    82  74  77 SE12      29.59F
BISMARCK       CLOUDY    83  72  69 SE10      29.65S
DICKINSON      CLOUDY    79  64  60 SE13      29.60F
GARRISON         N/A     80  69  69 SE14      29.61F
HETTINGER ARPT TSTM      67  58  72 SE26G39   29.71R
JAMESTOWN      PTCLDY    81  74  79 SE15G23   29.71S
BEACH          TSTM      68  59  73 S35G47    29.63
CROSBY         FAIR      77  75  94 E14       29.54F
HARVEY         FAIR      82  75  78 SE12G20   29.67R
HAZEN          FAIR      82  66  57 SE15G22   29.60F
LINTON         FAIR      82  77  83 SE14G22   29.68R HX  91
MANDAN         FAIR      82  68  61 SE16G22   29.66F
OAKES            N/A     77  73  88 E6        29.73S
STANLEY        FAIR      79  72  78 SE13      29.60F
$$

CITY           SKY/WX    TMP DP  RH WIND       PRES   REMARKS
GRAND FORKS    PTCLDY    82  72  71 SE10      29.73S
GRAND FORKS AF CLEAR     81  74  79 SE8       29.73F
DEVILS LAKE    CLEAR     81  68  65 SE16      29.70S
FARGO          CLEAR     83  71  67 SE14      29.75S
CAVALIER       FAIR      79  72  78 SE5       29.74F
GRAFTON        FAIR      79  73  83 SE9       29.74F
GWINNER          N/A     81  77  89 SE14      29.74S
LANGDON        FAIR      77  73  88 SE9       29.76F
ROLLA          CLOUDY    75  73  94 SE12      29.74S
WALHALLA       FAIR      79  77  94 MISG      29.75S
$$

CITY           SKY/WX    TMP DP  RH WIND       PRES   REMARKS
ABERDEEN       CLEAR     80  70  71 SE9       29.71S
MOBRIDGE       MOCLDY    85  74  69 SE21G28   29.64R HX  92
BUFFALO          N/A     75  60  59 SE23G31   29.59R
RAPID CITY     CLOUDY    67  63  87 SE8       29.69R
GLASGOW        CLOUDY    61  58  90 W28G38    29.62F
SIDNEY         CLOUDY   N/A N/A N/A SW17G37   29.54R THUNDER
WOLF POINT     CLOUDY    72  64  76 SW22G36   29.48
MILES CITY     TSTM      58  56  93 NW30G51   29.73R FOG
BAKER          CLOUDY    67  60  78 SE17      29.61F
$$

CITY           SKY/WX    TMP DP  RH WIND       PRES   REMARKS
BILLINGS       CLOUDY    56  49  77 NW22      29.88R
GREAT FALLS    LGT RAIN  51  48  89 W12       30.00R
REGINA         TSTM      61  59  94 NW12G20   29.66F
ESTEVAN        MOCLDY    79  70  73 E18       29.57F
$$



USA.gov is the U.S. government's official web portal to all federal, state and local government web resources and services.